Regional Weather Roundup
Issued by NWS

Home | Current Version | Previous Version | Text Only | Print | Product List | Glossary On
Versions: 1 2 3 4 5 6 7 8 9 10 11 12 13 14 15 16 17 18 19 20 21 22 23 24 25 26 27 28 29 30 31 32 33 34 35 36 37 38 39 40 41 42 43 44 45 46 47 48 49 50
000
ASUS43 KDTX 031510
RWRMI
MICHIGAN HOURLY REGIONAL WEATHER ROUNDUP
NATIONAL WEATHER SERVICE DETROIT/PONTIAC MI
ISSUED BY NATIONAL WEATHER SERVICE GRAND RAPIDS MI
1100 AM EDT THU SEP 03 2015

NOTE: "FAIR" INDICATES FEW OR NO CLOUDS BELOW 12,000 FEET WITH NO
SIGNIFICANT WEATHER AND/OR OBSTRUCTION TO VISIBILITY.

MIZ047>049-052>055-059>063-066>070-074>076-081>083-031600-
SOUTHEAST LOWER MICHIGAN

CITY           SKY/WX    TMP DP  RH WIND       PRES   REMARKS
ADRIAN         SUNNY     82  67  60 SW7       29.99S
ALMA           LGT RAIN  67  65  93 CALM      29.96F
ANN ARBOR      SUNNY     80  70  71 S7        29.98S
BAD AXE        MOSUNNY   74  74  98 SE6       29.96S
DETROIT CITY   SUNNY     82  69  64 S3        29.97S
DETROIT        MOSUNNY   83  70  64 VRB5      29.97F
FLINT          MOSUNNY   83  70  64 S6        29.96S
GROSSE ILE     SUNNY     81  73  78 S8        29.96S
HILLSDALE      SUNNY     82  72  70 W6        30.01R
HOWELL         PTSUNNY   82  71  67 S6        29.98S

CITY           SKY/WX    TMP DP  RH WIND       PRES   REMARKS
JACKSON        MOSUNNY   81  71  71 SW8       29.99R
LANSING        PTSUNNY   81  71  71 SW8       29.97S
MASON          MOSUNNY   81  70  68 SW5       29.98S
MONROE         SUNNY     82  71  68 SW3       29.96F
MT. CLEMENS    MOSUNNY   81  69  67 VRB5      29.94F
PONTIAC        MOSUNNY   80  69  69 S8        29.97S
PORT HOPE        N/A     70  70 100 SE6       29.94S
PORT HURON     SUNNY     79  72  78 CALM      29.96S
TRI CITIES     TSTM      69  65  86 W20G31    30.01R VSB 1/2
YPSILANTI      SUNNY     86  71  60 S6        29.98S HX  91
$$
MIZ043>046-050>051-056>058-064>065-071>073-077>080-031600-
SOUTHWEST LOWER MICHIGAN

CITY           SKY/WX    TMP DP  RH WIND       PRES   REMARKS
BATTLE CREEK   MOSUNNY   82  70  66 SW8       29.99R
BENTON HARBOR  CLOUDY    79  68  69 SW9       29.97R
BIG RAPIDS     CLOUDY    69  68  97 S6        29.94S
COLDWATER      MOSUNNY   82  70  66 SW6       29.99S
HOLLAND        PTSUNNY   76  69  79 W7        29.96R
GRAND RAPIDS   TSTM      74  71  91 N9        29.98R FOG
KALAMAZOO      MOSUNNY   83  70  64 W9        29.98S
MARSHALL       MOSUNNY   82  71  69 W5        29.98S
MOUNT PLEASANT RAIN      69  67  93 SE5       29.96S
MUSKEGON       CLOUDY    76  68  76 SW9       29.94R
STURGIS        SUNNY     81  72  74 W5        29.99R
$$
MIZ016>042-031600-
NORTHERN LOWER MICHIGAN

CITY           SKY/WX    TMP DP  RH WIND       PRES   REMARKS
ALPENA         CLOUDY    69  65  86 N9        29.97F
BEAVER ISLAND  CLOUDY    70  64  79 E10G18    29.93F
BELLAIRE       CLOUDY    69  65  89 NE5       29.92S
CADILLAC       CLOUDY    68  66  95 SE5       29.93S
CHARLEVOIX     CLOUDY    68  66  94 E9        29.95S
GAYLORD        CLOUDY    65  65 100 NE7       29.96S
HOUGHTON LAKE  RAIN      66  65  96 E5        29.96S FOG
MANISTEE       CLOUDY    70  66  88 W5        29.91S
OSCODA         CLOUDY    71  67  87 E5        29.93F
PELLSTON       CLOUDY    68  65  90 E5        29.95F
TRAVERSE CITY  CLOUDY    70  67  90 CALM      29.90F FOG
LUDINGTON      CLOUDY    73  69  87 SW3       29.91S
$$
MIZ007>008-015-031600-
EASTERN UPPER MICHIGAN

CITY           SKY/WX    TMP DP  RH WIND       PRES   REMARKS
KINROSS        CLOUDY    70  64  83 E8        29.98S
MACKINAC ISLAN LGT RAIN  66  64  94 E9G16     29.96F
NEWBERRY       MOSUNNY   73  65  76 E12       29.96S
S. S. MARIE    PTSUNNY   71  64  78 E6        29.97F
$$
MIZ004>006-011>014-085-031600-
CENTRAL UPPER MICHIGAN

CITY           SKY/WX    TMP DP  RH WIND       PRES   REMARKS
MANISTIQUE     CLOUDY    72  63  74 E5        29.95S
ESCANABA       CLOUDY    70  66  88 NE8       29.94S
MENOMINEE      CLOUDY    66  64  94 NE8       29.93R
$$
MIZ001>003-009>011-084-031600-
WESTERN UPPER MICHIGAN

CITY           SKY/WX    TMP DP  RH WIND       PRES   REMARKS
IRON MOUNTAIN  CLOUDY    67  64  90 NE5       29.97R
HOUGHTON       SUNNY     67  60  78 SE3       30.00S
COPPER HARBOR    N/A     62  56  80 CALM      30.00S
IRONWOOD       MOSUNNY   64  64 100 E7        29.98S
$$

ABBREVIATIONS USED IN REMARKS
   TC - TEMPERATURE IN CELSIUS
  WCI - WIND CHILL INDEX
   HX - HEAT INDEX
  VSB - VISIBILITY



USA.gov is the U.S. government's official web portal to all federal, state and local government web resources and services.